sat.trackr.live / text

‹ back to catalog

2024-174D

NORAD 61241 · 2024-174D

PAYLOAD ACTIVE UNKNOWN

§ Identity

Operator
Country
PRC
Launch date
2024-09-24
Launch site
JSC
Launch vehicle
Mass (kg)
RCS (m²)

External: N2YO · Heavens-Above · Gunter

§ Orbital elements

Epoch: 2026-05-25T04:51:38.081376Z

Period
94.16 min
Inclination
97.4385°
Eccentricity
0.0010328
Mean motion
15.29253205 rev/d
Perigee alt
471.0 km
Apogee alt
485.1 km
Semi-major
6,856.2 km
B*
2.6345e-4
RAAN
156.6329°
Arg perigee
318.4420°
Mean anomaly
41.6034°
Rev number
9,240

§ Raw data

2024-174D1 61241U 24174D   26145.20252409  .00007412  00000+0  26345-3 0  99902 61241  97.4385 156.6329 0010328 318.4420  41.6034 15.29253205 92407

JSON: /api/v1/satellites/61241 · /tle

For live sub-satellite position, see the globe view (requires WebGL).

§ Visibility from observer

Set your observer location to see the next 7 days of passes ≥ 10°. The values pass through the URL so the page stays shareable.

No JS? Fill the form by hand. The geolocation button needs JavaScript.